SCP
1 1 1 1 1 1 1 1 1 1 1 1 1 1 1 0 0 0 0 0 0 0 0 0 0 0 0 0 0 0 0 0 0 0 0 0 0 0 0 0 0 0 0
1 1 1 1 1 1 1 1 1 1 1 1 1 1 1 1 1 1 1 1 1 1 0 0 0 0 0 0 0 0 0 0 0 0 0 0 0 0 0 0 0 0 0
1 2 2 1 1 1 1 1 1 1 1 1 1 1 1 1 1 1 1 1 1 1 1 1 1 1 1 1 0 0 0 0 0 0 0 0 0 0 0 0 0 0 0
1 2 2 1 1 1 1 1 1 1 1 1 1 1 1 1 1 1 1 1 1 1 1 1 1 1 1 1 1 0 0 0 0 0 0 0 0 0 0 0 0 0 0
1 1 1 1 1 1 1 1 1 1 1 1 1 1 1 1 1 1 1 1 1 1 1 1 1 1 1 1 1 1 1 0 0 0 0 0 0 0 0 0 0 0 0
1 1 1 1 1 1 1 1 2 2 2 2 1 1 1 1 1 1 1 1 1 1 1 1 1 1 1 1 1 1 1 0 0 0 0 0 0 0 0 0 0 0 0
1 1 1 1 1 1 1 1 2 2 2 2 2 1 1 1 1 1 1 1 1 1 1 1 1 1 1 1 1 1 1 1 0 0 0 0 0 0 0 0 0 0 0
1 1 1 1 1 1 1 2 2 2 2 2 2 2 1 1 1 1 1 1 1 1 1 1 1 1 1 1 1 1 1 1 1 0 0 0 0 0 0 0 0 0 0
1 1 1 1 1 1 2 2 2 2 2 2 2 2 2 1 1 1 1 1 1 1 1 1 1 1 1 1 1 1 1 1 1 0 0 0 0 0 0 0 0 0 0
1 1 1 1 1 1 1 2 2 2 2 2 2 2 1 1 1 1 1 1 1 1 1 1 1 1 1 1 1 1 1 1 1 1 0 0 0 0 0 0 0 0 0
1 1 1 1 1 1 1 1 2 2 2 1 1 1 1 1 1 1 1 1 1 1 1 1 1 1 1 1 1 1 1 1 1 1 0 0 0 0 0 0 0 0 0
1 1 1 1 1 1 1 1 1 1 1 1 1 2 2 1 1 1 1 1 1 1 1 1 1 1 1 1 1 1 1 1 1 0 0 0 0 0 0 0 0 0 0
1 1 1 1 1 1 1 1 1 1 1 1 1 2 2 1 1 1 1 1 1 1 1 1 1 1 1 1 0 1 1 0 0 0 0 0 0 0 0 0 0 0 0
2 2 2 1 1 1 1 1 1 1 1 1 1 2 1 1 1 1 1 1 1 1 1 1 1 1 0 0 0 0 0 0 0 0 0 0 0 0 0 0 0 0 0
2 2 2 1 1 1 1 1 1 1 1 1 1 1 1 1 1 1 1 1 1 1 1 1 1 0 0 0 0 0 0 0 0 0 0 0 0 0 0 0 0 0 0
2 2 1 1 1 1 1 1 1 1 1 1 1 1 1 1 1 1 1 1 1 1 1 1 0 0 0 0 0 0 0 0 0 0 0 0 0 0 0 0 0 0 0
1 1 1 1 1 1 1 1 1 1 1 1 1 1 1 1 1 1 1 1 1 1 1 0 0 0 0 0 0 0 0 0 0 0 0 0 0 0 0 0 0 0 0
1 1 1 1 1 1 1 1 1 1 1 1 1 1 1 1 1 1 1 1 1 1 0 0 0 0 0 0 0 0 0 0 0 0 0 0 0 0 0 0 0 0 0
1 1 1 1 1 1 1 1 1 1 1 1 1 1 1 1 1 1 1 1 1 1 1 0 0 0 0 0 0 0 0 0 0 0 0 0 0 0 0 0 0 0 0
1 1 1 1 1 1 1 1 1 1 1 1 1 1 1 1 1 1 1 1 1 1 1 0 0 0 0 0 0 0 0 0 0 0 0 0 0 0 0 0 0 0 0
1 1 1 1 1 1 1 1 1 1 1 1 1 1 1 1 1 1 1 1 1 1 0 0 0 0 0 0 0 0 0 0 0 0 0 0 0 0 0 0 0 0 0
1 1 1 1 1 1 1 1 1 1 1 1 1 1 1 1 1 1 1 1 0 0 0 0 0 0 0 0 0 0 0 0 0 0 0 0 0 0 0 0 0 0 0
1 1 1 1 1 1 1 1 1 1 1 1 1 1 1 1 1 1 1 0 0 0 0 0 0 0 0 0 0 0 0 0 0 0 0 0 0 0 0 0 0 0 0
1 1 1 1 1 1 1 1 1 1 1 1 1 1 1 1 1 1 0 0 0 0 0 0 0 0 0 0 0 0 0 0 0 0 0 0 0 0 0 0 0 0 0
1 1 1 1 1 1 1 1 1 1 1 1 1 1 1 1 1 1 0 0 0 0 0 0 0 0 0 0 0 0 0 0 0 0 0 0 0 0 0 0 0 0 0
1 1 1 1 1 1 1 1 1 1 1 1 1 1 1 1 0 0 0 0 0 0 0 0 0 0 0 0 0 0 0 0 0 0 0 0 0 0 0 0 0 0 0
Wind_Speed
9 10 10 10 10 9 8 7 6 5 4 3 3 2 2 2 2 2 2 2 1 1 1 0 0 1 1 1 1 0 0 0 1 1 1 1 2 2 2 1 2 2 3
9 10 10 10 10 9 9 8 7 6 5 3 2 2 2 2 2 2 2 2 2 1 1 0 0 1 1 1 0 0 0 0 1 1 1 1 1 1 2 2 2 2 2
10 10 11 11 11 11 9 8 7 7 6 5 3 2 2 1 2 2 2 2 2 2 1 1 1 1 1 1 1 0 0 1 1 1 1 1 1 1 1 2 2 2 2
10 11 11 11 11 11 10 8 8 7 6 5 4 4 3 2 2 2 2 2 2 2 1 1 1 1 0 1 1 1 1 1 1 1 0 1 1 0 0 0 1 2 3
9 8 10 11 10 10 11 9 8 7 6 5 4 3 3 2 2 2 2 2 2 2 1 1 1 1 1 1 0 0 0 1 1 1 1 0 1 1 1 1 1 1 1
7 7 9 9 9 10 10 10 9 7 6 6 5 4 3 2 2 2 2 2 2 2 2 2 2 2 1 1 1 1 1 1 1 1 1 1 0 1 1 1 1 1 1
7 7 8 8 9 9 9 9 9 8 7 6 5 4 3 3 3 2 2 2 1 1 1 1 1 1 2 2 2 1 1 1 1 1 1 1 1 1 0 1 1 1 1
7 7 6 7 6 7 8 8 8 8 7 6 5 4 4 3 2 2 1 1 1 1 2 2 1 2 2 2 2 1 1 1 1 2 2 2 2 1 1 1 1 1 1
7 8 7 6 6 6 6 7 7 6 6 6 6 5 4 3 2 2 1 1 1 1 2 2 1 1 1 1 2 1 2 1 2 2 2 1 2 2 1 1 1 1 1
8 7 6 6 6 6 6 6 6 6 5 5 5 5 4 3 2 2 2 1 1 1 1 1 1 1 1 2 2 2 2 2 2 1 1 1 1 2 2 1 1 1 1
8 7 6 6 6 6 7 6 6 5 4 4 4 3 3 3 3 2 2 2 1 1 1 1 1 1 1 1 1 2 2 2 1 1 1 1 1 1 2 2 1 1 0
7 8 7 6 5 6 6 5 5 5 4 4 3 3 3 3 3 2 2 2 1 1 1 1 1 1 0 0 1 1 1 1 1 1 0 1 1 1 2 2 1 1 0
7 7 6 5 5 5 5 5 4 4 4 4 4 4 3 3 3 2 2 2 1 1 1 1 0 0 0 0 1 1 1 1 1 0 0 0 1 1 1 1 1 1 1
6 6 5 5 4 4 4 4 4 4 4 4 4 3 3 3 3 3 2 2 2 1 1 1 0 1 0 0 0 0 0 0 0 1 1 1 0 1 1 1 1 1 1
6 5 5 4 4 4 4 4 4 4 4 4 3 3 3 3 3 2 2 2 2 2 1 1 1 1 0 1 2 1 0 0 1 1 1 1 1 2 1 1 1 1 1
4 5 4 5 4 4 4 4 3 4 4 3 3 3 3 3 3 2 2 2 2 1 1 1 1 1 1 2 3 2 1 0 1 1 1 1 2 2 2 1 0 1 1
3 3 3 3 4 3 3 3 4 4 3 3 3 3 4 4 3 3 3 2 2 1 1 1 1 1 1 2 2 2 1 0 0 1 1 1 0 1 1 2 2 1 1
2 2 2 2 3 3 3 2 3 4 3 3 3 3 4 4 3 2 2 2 2 1 1 1 1 2 1 1 1 2 1 1 0 0 0 1 0 1 1 2 1 1 0
3 3 2 2 2 3 3 3 3 3 3 3 3 3 3 3 3 3 2 2 2 2 2 1 1 2 1 1 1 1 1 1 1 1 1 1 1 1 0 1 1 1 1
3 2 2 2 2 2 2 3 3 3 3 3 3 3 2 3 3 3 2 2 2 2 2 2 2 2 2 2 1 0 2 1 1 2 2 1 1 1 1 1 1 2 2
3 2 2 2 1 2 2 2 2 2 2 2 2 2 2 2 2 2 2 2 3 3 2 2 2 2 3 4 3 2 1 1 1 1 1 1 3 2 1 1 2 2 2
2 2 2 2 1 2 2 2 2 1 1 1 2 2 2 2 2 2 2 2 3 3 3 3 3 2 3 4 4 4 3 2 2 1 0 1 1 2 3 2 3 3 2
2 1 2 1 1 1 2 2 1 1 1 1 1 2 2 2 2 2 3 3 3 3 3 3 3 3 3 3 5 6 5 3 1 2 2 2 3 3 3 5 5 3 2
1 1 1 1 0 0 1 0 0 1 1 1 1 2 2 2 2 2 2 2 2 2 2 2 2 2 2 2 2 1 2 2 2 2 3 3 5 4 4 4 4 4 3
1 0 0 1 1 1 1 0 0 1 1 2 2 2 2 2 1 1 1 1 0 0 1 1 0 1 1 2 2 1 1 1 1 2 2 2 2 3 3 3 3 3 3
1 0 0 1 1 1 1 0 0 1 1 1 2 2 2 2 2 2 1 3 2 2 3 2 2 2 2 4 4 2 1 1 1 1 3 3 3 3 3 2 2 2 2
Wind_Direction
168 156 155 153 149 145 146 150 155 151 152 157 169 174 168 172 148 139 131 143 153 138 120 293 171 129 110 110 76 69 336 140 131 110 117 154 174 171 151 149 139 149 152
164 155 157 157 155 155 156 158 161 156 162 164 173 176 172 176 157 143 145 159 164 170 157 218 196 147 145 125 93 190 91 281 152 151 155 159 152 217 173 161 174 162 143
172 165 165 164 163 163 165 167 164 161 172 171 172 168 167 181 156 154 159 175 174 164 166 170 209 169 173 163 196 234 198 239 265 209 163 144 187 211 152 184 165 137 133
172 174 170 166 167 167 166 162 160 166 170 171 177 179 178 178 165 162 154 167 182 177 188 181 160 163 173 179 215 140 262 236 258 277 206 168 155 181 147 220 159 149 154
173 172 173 168 168 166 166 163 163 166 167 176 177 183 190 181 159 163 153 175 184 179 179 172 169 178 199 205 176 167 275 287 301 299 297 263 222 210 187 197 182 176 167
162 167 168 161 168 167 163 163 162 165 168 173 180 184 189 184 171 186 173 182 170 165 175 176 186 181 201 211 200 235 218 250 284 292 287 265 231 244 194 196 198 177 180
158 156 158 160 166 165 160 160 159 163 166 170 179 180 189 197 205 201 187 180 164 154 161 179 173 188 204 200 185 196 224 247 268 281 290 291 274 280 215 179 207 188 166
145 141 156 156 156 154 148 148 154 160 167 170 173 180 192 204 207 210 194 177 162 143 145 160 172 198 211 203 184 199 210 223 240 256 273 282 292 294 266 220 186 183 165
138 137 147 149 142 141 135 146 149 156 167 172 172 180 190 193 187 181 185 166 156 146 139 153 172 198 217 215 194 195 211 222 229 240 258 259 282 292 291 278 197 182 190
136 135 133 129 134 132 131 130 141 151 161 171 181 177 178 180 182 169 152 142 126 83 104 150 179 197 223 237 209 204 208 205 219 227 249 254 288 315 324 313 281 232 196
137 135 134 130 130 132 135 134 138 150 159 168 170 163 162 163 161 166 155 138 135 134 149 177 201 216 222 214 205 206 199 201 212 243 242 240 334 323 316 317 332 354 60
129 130 129 134 132 132 134 138 147 155 159 157 149 149 144 151 158 159 149 143 151 170 194 208 213 215 216 229 204 218 193 184 198 252 293 308 284 311 325 320 330 348 134
121 121 124 130 125 127 130 135 145 149 148 143 147 147 150 150 156 161 164 162 173 179 196 189 190 253 143 157 176 173 176 162 148 165 357 304 319 312 307 315 322 324 312
122 124 126 124 122 123 127 135 140 142 139 137 142 151 158 160 165 162 164 165 170 170 173 170 184 178 133 0 354 140 127 125 151 188 179 186 187 311 302 300 311 326 334
129 131 132 130 134 133 137 142 143 137 131 137 143 144 151 163 162 161 158 160 174 173 173 174 190 171 86 8 359 328 193 175 279 234 165 151 122 91 57 349 338 334 347
130 138 142 141 144 146 147 147 150 141 142 151 151 148 155 149 151 157 156 163 168 158 161 169 152 92 52 26 24 10 333 323 286 280 214 165 124 133 148 171 196 225 214
110 124 142 145 153 156 151 161 153 148 152 154 156 162 159 150 153 165 154 155 154 160 175 170 137 111 59 33 17 7 305 296 302 300 289 314 26 158 207 217 214 230 240
81 90 96 131 143 145 154 161 164 160 160 160 163 175 169 155 153 152 157 161 164 185 197 188 158 150 125 66 2 350 253 189 196 241 200 186 237 269 264 245 223 232 288
76 91 100 111 134 148 159 163 168 168 170 173 180 185 172 159 159 153 158 163 181 197 200 169 178 159 156 167 333 327 232 198 202 198 183 193 187 329 339 230 273 289 281
64 85 114 121 134 149 156 165 175 182 190 192 190 182 174 167 162 157 174 185 200 206 208 183 181 183 170 175 195 275 257 237 224 197 177 121 128 92 78 239 253 266 285
64 77 96 116 128 143 148 166 179 197 206 196 180 163 162 167 168 170 184 195 208 211 209 200 194 188 181 176 186 195 246 294 291 258 195 144 139 149 191 250 253 243 269
55 91 106 115 126 154 163 174 188 197 201 186 181 164 175 201 170 168 193 206 210 218 211 208 212 191 182 185 191 197 219 279 307 304 9 98 162 209 230 233 241 259 279
44 92 121 127 125 166 170 181 187 185 188 182 182 181 194 203 175 195 212 218 216 228 227 212 211 196 175 169 186 199 217 239 261 332 328 259 234 239 235 228 235 242 238
37 78 142 151 140 178 171 185 180 177 179 187 199 205 204 203 199 222 226 220 216 223 231 226 218 187 157 133 138 172 197 219 233 275 279 258 247 248 247 239 223 223 230
36 42 199 184 204 201 181 212 205 185 213 214 222 225 218 201 198 208 270 249 83 214 242 267 182 173 150 133 142 160 184 245 260 284 257 239 233 234 233 227 223 218 215
67 61 250 224 225 218 200 193 170 180 208 219 228 227 214 201 208 189 163 51 67 81 84 85 104 92 109 143 137 133 146 196 204 244 252 251 249 246 248 241 231 223 224